Location: Juzet
(42.9779°N, 0.7597°E)
Time: 17:58:17
(UTC+00:00)

Meteor 1-28 Rocket - Pass Details

Date: 14 July 2020
Orbit: 505 x 522 km, 97.3° (Epoch: 13 August)

Event Time Altitude Azimuth Distance (km) Brightness Sun altitude
Exits shadow 02:31:17 - 148° (SSE) 1,784 5.7 -16.9°
Reaches altitude 10° 02:31:27 10° 147° (SSE) 1,717 5.6 -16.9°
Maximum altitude 02:35:00 47° 74° (ENE) 686 4.1 -16.5°
Drops below altitude 10° 02:38:36 10° 360° (N) 1,739 6.6 -16.1°
Sets 02:40:45 0° 354° (N) 2,633 7.5 -15.9°
